^^
MeteoGriva-Weather Station Historical Data
Daily Summary for July 11, 2020 Units:  Metric    English   Both
Daily Weekly Monthly Yearly Custom
  High: Low: Average:
Temperature: 30 °C 19.4 °C 24.6 °C
Dew Point: 23.6 °C 16.7 °C 20.3 °C
Humidity: 93.3% 62% 78%
Wind Speed: 11.4km/h 0km/h 3.2km/h
Wind Gust: 28km/h - -
Wind- - South
Pressure: 1013.5 hPa 1008.1 hPa -
Precipitation: 0.0 mm    
Historical Graphs
 
 
Tabular Data for July 11, 2020
Time Temperature Dew Point Pressure Wind Wind Speed Wind Gust Humidity Rainfall Rate (Hourly) solar
00:04 22 °C 18.2 °C 1012.5 hPa South 5 km/h 12.2 km/h 78.9% 0.0 mm 0 W/m2
00:09 22 °C 17.9 °C 1012.5 hPa South 4.8 km/h 16.3 km/h 77.6% 0.0 mm 0 W/m2
00:14 22.1 °C 17.7 °C 1012.9 hPa South 6 km/h 16.3 km/h 76% 0.0 mm 0 W/m2
00:19 22.1 °C 17.2 °C 1012.9 hPa SSW 5.1 km/h 16.3 km/h 74% 0.0 mm 0 W/m2
00:24 22.2 °C 17.2 °C 1012.9 hPa South 5.1 km/h 12.2 km/h 73.9% 0.0 mm 0 W/m2
00:29 22.2 °C 17.2 °C 1012.5 hPa South 7.3 km/h 16.3 km/h 73.1% 0.0 mm 0 W/m2
00:34 22.5 °C 17.5 °C 1012.9 hPa South 4.2 km/h 12.2 km/h 73.4% 0.0 mm 0 W/m2
00:39 22.5 °C 17.5 °C 1012.9 hPa South 5 km/h 12.2 km/h 73.4% 0.0 mm 0 W/m2
00:44 22.5 °C 17.4 °C 1012.9 hPa South 2.8 km/h 12.2 km/h 73% 0.0 mm 0 W/m2
00:49 22.5 °C 17.2 °C 1012.9 hPa SSW 5 km/h 16.3 km/h 72% 0.0 mm 0 W/m2
00:54 22.6 °C 17.3 °C 1012.9 hPa South 5.7 km/h 16.3 km/h 72% 0.0 mm 0 W/m2
00:59 22.6 °C 17.3 °C 1012.9 hPa South 5.4 km/h 12.2 km/h 72% 0.0 mm 0 W/m2
01:04 22.6 °C 17.3 °C 1012.9 hPa South 4.9 km/h 12.2 km/h 72.1% 0.0 mm 0 W/m2
01:09 22.6 °C 17.3 °C 1012.9 hPa South 4.2 km/h 16.3 km/h 72% 0.0 mm 0 W/m2
01:14 22.5 °C 17.2 °C 1012.9 hPa South 4.1 km/h 12.2 km/h 72% 0.0 mm 0 W/m2
01:19 22.5 °C 17.2 °C 1012.9 hPa South 4.7 km/h 16.3 km/h 72% 0.0 mm 0 W/m2
01:24 22.5 °C 17.2 °C 1012.9 hPa South 5.2 km/h 16.3 km/h 72% 0.0 mm 0 W/m2
01:29 22.5 °C 17.2 °C 1012.9 hPa South 4 km/h 12.2 km/h 72% 0.0 mm 0 W/m2
01:34 22.6 °C 17.4 °C 1012.9 hPa South 4.9 km/h 12.2 km/h 72.6% 0.0 mm 0 W/m2
01:39 22.6 °C 17.3 °C 1012.9 hPa South 4.4 km/h 16.3 km/h 72% 0.0 mm 0 W/m2
01:44 22.6 °C 17.3 °C 1012.9 hPa South 5.9 km/h 16.3 km/h 72% 0.0 mm 0 W/m2
01:49 22.6 °C 17.2 °C 1012.9 hPa South 6.6 km/h 16.3 km/h 71.3% 0.0 mm 0 W/m2
01:54 22.7 °C 17.2 °C 1012.5 hPa SSE 3.3 km/h 12.2 km/h 71% 0.0 mm 0 W/m2
01:59 22.7 °C 17.2 °C 1012.5 hPa South 4.9 km/h 12.2 km/h 70.9% 0.0 mm 0 W/m2
02:04 22.7 °C 16.9 °C 1012.5 hPa SSW 5.6 km/h 12.2 km/h 70% 0.0 mm 0 W/m2
02:09 22.7 °C 16.7 °C 1012.9 hPa South 3.3 km/h 12.2 km/h 69% 0.0 mm 0 W/m2
02:14 23.2 °C 17 °C 1012.9 hPa South 3 km/h 7.9 km/h 68.4% 0.0 mm 0 W/m2
02:19 23.2 °C 16.9 °C 1012.9 hPa SSW 2.5 km/h 7.9 km/h 67.7% 0.0 mm 0 W/m2
02:24 23.2 °C 16.7 °C 1012.9 hPa South 2 km/h 7.9 km/h 67% 0.0 mm 0 W/m2
02:29 23.3 °C 16.8 °C 1012.9 hPa Calm   7.9 km/h 67.1% 0.0 mm 0 W/m2
02:34 23.4 °C 17.1 °C 1012.9 hPa Calm   4 km/h 67.7% 0.0 mm 0 W/m2
02:39 23.4 °C 17.2 °C 1012.9 hPa Calm     68% 0.0 mm 0 W/m2
02:44 23.4 °C 17.2 °C 1012.9 hPa Calm   4 km/h 68% 0.0 mm 0 W/m2
02:49 23.3 °C 17.2 °C 1012.9 hPa Calm     68.6% 0.0 mm 0 W/m2
02:54 22.9 °C 17.2 °C 1012.9 hPa Calm     70.2% 0.0 mm 0 W/m2
02:59 22.7 °C 17.5 °C 1012.9 hPa Calm     72.8% 0.0 mm 0 W/m2
03:04 22.5 °C 17.4 °C 1012.9 hPa Calm     73% 0.0 mm 0 W/m2
03:09 22.4 °C 17.3 °C 1012.9 hPa Calm     73% 0.0 mm 0 W/m2
03:14 21.9 °C 17 °C 1012.9 hPa Calm   4 km/h 73.9% 0.0 mm 0 W/m2
03:19 21.7 °C 18.9 °C 1012.9 hPa Calm   7.9 km/h 84.4% 0.0 mm 0 W/m2
03:24 21.4 °C 19.1 °C 1012.9 hPa Calm     86.7% 0.0 mm 0 W/m2
03:29 21.1 °C 19.1 °C 1012.9 hPa Calm     88.6% 0.0 mm 0 W/m2
03:34 20 °C 17.9 °C 1012.9 hPa Calm     87.7% 0.0 mm 0 W/m2
03:39 19.6 °C 17.4 °C 1012.9 hPa Calm     86.8% 0.0 mm 0 W/m2
03:44 19.6 °C 17.1 °C 1012.9 hPa Calm     85.4% 0.0 mm 0 W/m2
03:49 19.6 °C 17.3 °C 1012.9 hPa Calm     86.3% 0.0 mm 0 W/m2
03:54 19.8 °C 18.1 °C 1012.9 hPa Calm     90% 0.0 mm 0 W/m2
03:59 19.7 °C 18.4 °C 1012.9 hPa Calm     92.1% 0.0 mm 0 W/m2
04:04 19.7 °C 18.4 °C 1012.9 hPa Calm     92.2% 0.0 mm 0 W/m2
04:09 19.7 °C 18.1 °C 1012.9 hPa Calm     90.7% 0.0 mm 0 W/m2
04:14 19.7 °C 17.8 °C 1012.9 hPa Calm     89% 0.0 mm 0 W/m2
04:19 19.6 °C 17.7 °C 1012.9 hPa Calm     89% 0.0 mm 0 W/m2
04:24 19.6 °C 17.8 °C 1012.9 hPa Calm     89.7% 0.0 mm 0 W/m2
04:29 19.6 °C 17.9 °C 1012.9 hPa Calm     89.8% 0.0 mm 0 W/m2
04:34 19.7 °C 18 °C 1012.9 hPa Calm     90% 0.0 mm 0 W/m2
04:39 19.7 °C 17.9 °C 1012.9 hPa Calm     89.5% 0.0 mm 0 W/m2
04:44 19.6 °C 17.9 °C 1012.9 hPa Calm   4 km/h 90% 0.0 mm 0 W/m2
04:49 19.6 °C 18.1 °C 1012.9 hPa Calm     90.9% 0.0 mm 0 W/m2
04:54 19.5 °C 17.9 °C 1012.9 hPa Calm     90.3% 0.0 mm 0 W/m2
04:59 19.4 °C 17.1 °C 1012.9 hPa South 0.5 km/h 4 km/h 86.4% 0.0 mm 0 W/m2
05:04 19.5 °C 16.8 °C 1012.9 hPa South 0.3 km/h 7.9 km/h 84.7% 0.0 mm 0 W/m2
05:09 19.7 °C 16.9 °C 1012.9 hPa SSW 0.3 km/h 7.9 km/h 84% 0.0 mm 0 W/m2
05:14 20.2 °C 17.4 °C 1012.9 hPa SSW 1.3 km/h 7.9 km/h 84% 0.0 mm 0 W/m2
05:19 20.4 °C 17.7 °C 1012.9 hPa SW 0.3 km/h 7.9 km/h 84.4% 0.0 mm 0 W/m2
05:24 20.4 °C 17.6 °C 1012.9 hPa South 0.9 km/h 7.9 km/h 84% 0.0 mm 0 W/m2
05:29 20.4 °C 17.8 °C 1012.9 hPa SSW 0.7 km/h 7.9 km/h 84.9% 0.0 mm 0 W/m2
05:34 20.3 °C 17.7 °C 1012.9 hPa SSW 0.4 km/h 7.9 km/h 85% 0.0 mm 0 W/m2
05:39 20.2 °C 17.6 °C 1012.9 hPa SSW 1 km/h 7.9 km/h 85% 0.0 mm 0 W/m2
05:44 20.2 °C 17.6 °C 1012.9 hPa Calm     85% 0.0 mm 0 W/m2
05:49 20.1 °C 17.5 °C 1012.9 hPa South 1.3 km/h 12.2 km/h 85% 0.0 mm 0 W/m2
05:54 20.2 °C 17.6 °C 1012.5 hPa South 3.5 km/h 12.2 km/h 85.4% 0.0 mm 0 W/m2
05:59 20.2 °C 17.8 °C 1012.9 hPa South 4.5 km/h 12.2 km/h 86.1% 0.0 mm 0 W/m2
06:04 20.2 °C 18 °C 1012.5 hPa South 5.2 km/h 12.2 km/h 87.2% 0.0 mm 0 W/m2
06:09 20.2 °C 18.1 °C 1012.9 hPa South 3.9 km/h 12.2 km/h 88% 0.0 mm 3 W/m2
06:14 20.2 °C 18.1 °C 1012.9 hPa South 1.4 km/h 7.9 km/h 88% 0.0 mm 6 W/m2
06:19 20.2 °C 18.1 °C 1012.9 hPa SSW 0.6 km/h 12.2 km/h 88% 0.0 mm 13 W/m2
06:24 20.2 °C 18.1 °C 1012.9 hPa South 3.9 km/h 12.2 km/h 88% 0.0 mm 27 W/m2
06:29 20.2 °C 18.1 °C 1012.9 hPa Calm   12.2 km/h 87.7% 0.0 mm 42 W/m2
06:34 20.4 °C 18.1 °C 1012.9 hPa SSE 0.5 km/h 7.9 km/h 87% 0.0 mm 58 W/m2
06:39 20.6 °C 18.3 °C 1013.2 hPa SSW 0.2 km/h 7.9 km/h 86.3% 0.0 mm 77 W/m2
06:44 20.6 °C 18.2 °C 1013.2 hPa Calm     86% 0.0 mm 92 W/m2
06:49 20.7 °C 18.2 °C 1012.9 hPa Calm     85.9% 0.0 mm 109 W/m2
06:54 20.9 °C 18.3 °C 1012.9 hPa Calm     85.2% 0.0 mm 127 W/m2
06:59 21.2 °C 18.4 °C 1013.2 hPa Calm     84% 0.0 mm 145 W/m2
07:04 21.3 °C 18.5 °C 1012.9 hPa Calm     83.9% 0.0 mm 163 W/m2
07:09 21.4 °C 18.4 °C 1013.2 hPa Calm     83.1% 0.0 mm 176 W/m2
07:14 21.4 °C 18.5 °C 1013.2 hPa Calm     83.3% 0.0 mm 193 W/m2
07:19 21.4 °C 18.6 °C 1013.2 hPa Calm     84.2% 0.0 mm 206 W/m2
07:29 21.2 °C 18.6 °C 1013.2 hPa NNE 0.3 km/h 4 km/h 84.9% 0.0 mm 232 W/m2
07:34 21.1 °C 18.5 °C 1013.2 hPa Calm   4 km/h 84.8% 0.0 mm 245 W/m2
07:39 21.1 °C 18.6 °C 1013.2 hPa Calm     85.3% 0.0 mm 258 W/m2
07:44 21.1 °C 18.8 °C 1013.2 hPa Calm     86.7% 0.0 mm 267 W/m2
07:49 21.1 °C 18.6 °C 1013.5 hPa Calm     85.4% 0.0 mm 277 W/m2
07:54 21.6 °C 18.7 °C 1013.5 hPa Calm     83.7% 0.0 mm 288 W/m2
07:59 22.4 °C 19.2 °C 1013.5 hPa Calm     81.9% 0.0 mm 297 W/m2
08:09 22.8 °C 19.1 °C 1013.5 hPa Calm     79.8% 0.0 mm 314 W/m2
08:14 23.1 °C 19.9 °C 1013.5 hPa SSW 1.8 km/h 7.9 km/h 82.1% 0.0 mm 319 W/m2
08:19 23.7 °C 20.4 °C 1013.5 hPa Calm   4 km/h 82% 0.0 mm 326 W/m2
08:24 23.7 °C 20.3 °C 1013.5 hPa SSE 3.8 km/h 16.3 km/h 82% 0.0 mm 332 W/m2
08:29 23.6 °C 20.3 °C 1013.5 hPa South 4.8 km/h 16.3 km/h 82.2% 0.0 mm 337 W/m2
08:34 23.6 °C 20.4 °C 1013.5 hPa South 7.6 km/h 16.3 km/h 82.8% 0.0 mm 341 W/m2
08:39 23.5 °C 20.4 °C 1013.5 hPa South 5.2 km/h 16.3 km/h 83% 0.0 mm 348 W/m2
08:44 23.4 °C 20.4 °C 1013.5 hPa SSE 5.8 km/h 16.3 km/h 83.6% 0.0 mm 352 W/m2
08:49 23.5 °C 20.5 °C 1013.5 hPa South 6 km/h 16.3 km/h 83.4% 0.0 mm 357 W/m2
08:54 23.6 °C 20.5 °C 1013.5 hPa SE 3.8 km/h 16.3 km/h 82.9% 0.0 mm 362 W/m2
08:59 24 °C 20.9 °C 1013.5 hPa South 4.2 km/h 12.2 km/h 82.9% 0.0 mm 368 W/m2
09:04 24 °C 20.9 °C 1013.5 hPa SE 2.6 km/h 12.2 km/h 83.1% 0.0 mm 373 W/m2
09:09 24.1 °C 21.1 °C 1013.5 hPa SE 4.8 km/h 12.2 km/h 83.7% 0.0 mm 380 W/m2
09:14 24.1 °C 21.1 °C 1013.5 hPa SSE 6 km/h 16.3 km/h 83.6% 0.0 mm 385 W/m2
09:19 24.3 °C 21.2 °C 1013.5 hPa South 5.3 km/h 12.2 km/h 82.8% 0.0 mm 389 W/m2
09:24 24.3 °C 21.2 °C 1013.5 hPa SSE 7.4 km/h 20.1 km/h 82.9% 0.0 mm 392 W/m2
09:29 24.3 °C 21.3 °C 1013.5 hPa South 3.7 km/h 20.1 km/h 83.3% 0.0 mm 402 W/m2
09:34 24.4 °C 21.2 °C 1013.5 hPa SSE 0.8 km/h 16.3 km/h 82.2% 0.0 mm 414 W/m2
09:39 24.9 °C 21.1 °C 1013.5 hPa SSE 3.5 km/h 12.2 km/h 79.7% 0.0 mm 414 W/m2
09:44 24.9 °C 21.1 °C 1013.5 hPa SSE 4.2 km/h 12.2 km/h 79.3% 0.0 mm 415 W/m2
09:49 25 °C 21.4 °C 1013.2 hPa SE 1.2 km/h 7.9 km/h 80.8% 0.0 mm 428 W/m2
09:54 25 °C 21.4 °C 1013.2 hPa SSE 3.3 km/h 7.9 km/h 80.6% 0.0 mm 449 W/m2
09:59 25.4 °C 21.5 °C 1013.2 hPa SSE 1.2 km/h 12.2 km/h 79% 0.0 mm 444 W/m2
10:04 25.4 °C 21.7 °C 1013.2 hPa SSE 3.7 km/h 7.9 km/h 79.8% 0.0 mm 442 W/m2
10:09 25.4 °C 21.8 °C 1012.9 hPa SSE 2.3 km/h 12.2 km/h 80.4% 0.0 mm 446 W/m2
10:14 25.5 °C 21.8 °C 1013.2 hPa SSE 2.4 km/h 12.2 km/h 79.9% 0.0 mm 453 W/m2
10:19 25.8 °C 22.1 °C 1012.9 hPa SSE 1.4 km/h 12.2 km/h 80% 0.0 mm 461 W/m2
10:24 25.8 °C 22.1 °C 1012.9 hPa SSE 2 km/h 7.9 km/h 80.2% 0.0 mm 455 W/m2
10:29 25.7 °C 22.3 °C 1012.9 hPa South 4 km/h 16.3 km/h 81.2% 0.0 mm 467 W/m2
10:34 25.7 °C 22.1 °C 1012.9 hPa SE 2.7 km/h 12.2 km/h 80.7% 0.0 mm 467 W/m2
10:39 26 °C 22.3 °C 1012.9 hPa SSE 4.5 km/h 12.2 km/h 80.2% 0.0 mm 476 W/m2
10:44 25.9 °C 22.4 °C 1012.9 hPa SSE 3.5 km/h 12.2 km/h 81.1% 0.0 mm 483 W/m2
10:49 25.9 °C 22.1 °C 1012.9 hPa South 5.8 km/h 16.3 km/h 79.6% 0.0 mm 488 W/m2
10:54 26 °C 22.2 °C 1012.9 hPa South 4.1 km/h 16.3 km/h 79.9% 0.0 mm 486 W/m2
10:59 26 °C 22.2 °C 1012.9 hPa SSE 3.9 km/h 16.3 km/h 79.8% 0.0 mm 485 W/m2
11:04 26 °C 22.1 °C 1012.5 hPa South 3 km/h 16.3 km/h 79.2% 0.0 mm 489 W/m2
11:09 26.1 °C 22.3 °C 1012.9 hPa SE 3.4 km/h 12.2 km/h 79.4% 0.0 mm 494 W/m2
11:14 26.2 °C 22.2 °C 1012.9 hPa SE 3.9 km/h 12.2 km/h 78.8% 0.0 mm 495 W/m2
11:19 26.5 °C 22.3 °C 1012.5 hPa SSE 4.8 km/h 12.2 km/h 78.2% 0.0 mm 499 W/m2
11:24 26.5 °C 22.7 °C 1012.5 hPa SSE 3.9 km/h 16.3 km/h 79.3% 0.0 mm 500 W/m2
11:29 26.5 °C 22.5 °C 1012.5 hPa South 5.4 km/h 16.3 km/h 78.7% 0.0 mm 501 W/m2
11:34 26.5 °C 22.5 °C 1012.5 hPa South 4.6 km/h 16.3 km/h 78.8% 0.0 mm 502 W/m2
11:39 26.9 °C 22.7 °C 1012.5 hPa South 5.4 km/h 12.2 km/h 77.7% 0.0 mm 507 W/m2
11:44 26.9 °C 22.6 °C 1012.2 hPa South 2.8 km/h 12.2 km/h 77.7% 0.0 mm 511 W/m2
11:49 26.9 °C 22.7 °C 1012.2 hPa SSE 3.7 km/h 12.2 km/h 77.8% 0.0 mm 513 W/m2
11:54 26.9 °C 22.5 °C 1012.2 hPa SSE 3.4 km/h 12.2 km/h 76.7% 0.0 mm 516 W/m2
11:59 27.1 °C 22.8 °C 1012.2 hPa SE 5.1 km/h 16.3 km/h 77.1% 0.0 mm 516 W/m2
12:04 27.1 °C 22.8 °C 1012.2 hPa SE 3.8 km/h 20.1 km/h 77.2% 0.0 mm 519 W/m2
12:09 27.2 °C 22.6 °C 1011.9 hPa ESE 2.3 km/h 12.2 km/h 76.2% 0.0 mm 521 W/m2
12:14 27.2 °C 22.5 °C 1011.9 hPa SSE 3 km/h 12.2 km/h 75.7% 0.0 mm 523 W/m2
12:19 27.6 °C 23 °C 1011.9 hPa SE 1.8 km/h 12.2 km/h 76% 0.0 mm 526 W/m2
12:24 27.7 °C 23.1 °C 1011.9 hPa SSE 2.3 km/h 16.3 km/h 76.1% 0.0 mm 530 W/m2
12:29 27.7 °C 22.9 °C 1011.9 hPa South 5.3 km/h 16.3 km/h 75.2% 0.0 mm 530 W/m2
12:34 27.7 °C 22.9 °C 1011.9 hPa SSE 2.6 km/h 12.2 km/h 75% 0.0 mm 531 W/m2
12:39 28.3 °C 23.3 °C 1011.5 hPa South 2.7 km/h 12.2 km/h 74.4% 0.0 mm 536 W/m2
12:44 28.4 °C 23.4 °C 1011.5 hPa SSE 3.9 km/h 16.3 km/h 74.7% 0.0 mm 536 W/m2
12:49 28.3 °C 23.1 °C 1011.5 hPa South 2.7 km/h 12.2 km/h 73.5% 0.0 mm 535 W/m2
12:54 28.3 °C 23.3 °C 1011.5 hPa South 3.2 km/h 12.2 km/h 74.3% 0.0 mm 538 W/m2
12:59 27.8 °C 22.8 °C 1011.5 hPa SSE 3.9 km/h 12.2 km/h 74.4% 0.0 mm 537 W/m2
13:04 27.7 °C 22.5 °C 1011.5 hPa SE 5.7 km/h 16.3 km/h 73.4% 0.0 mm 535 W/m2
13:09 27.8 °C 22.6 °C 1011.5 hPa SE 5.1 km/h 16.3 km/h 73.4% 0.0 mm 535 W/m2
13:14 27.9 °C 22.6 °C 1011.2 hPa SSE 4.3 km/h 16.3 km/h 72.8% 0.0 mm 537 W/m2
13:19 28.4 °C 22.9 °C 1011.2 hPa SE 1.8 km/h 16.3 km/h 71.9% 0.0 mm 538 W/m2
13:24 28.5 °C 22.9 °C 1011.2 hPa SSE 2.7 km/h 12.2 km/h 71.7% 0.0 mm 539 W/m2
13:29 28.5 °C 22.7 °C 1010.8 hPa SSE 3.3 km/h 12.2 km/h 70.9% 0.0 mm 542 W/m2
13:34 28.6 °C 22.8 °C 1010.8 hPa SSE 2.7 km/h 12.2 km/h 71.2% 0.0 mm 541 W/m2
13:39 28.7 °C 22.9 °C 1010.8 hPa SSE 4.7 km/h 12.2 km/h 70.8% 0.0 mm 541 W/m2
13:44 28.8 °C 22.8 °C 1010.8 hPa South 4.1 km/h 12.2 km/h 70.1% 0.0 mm 539 W/m2
13:49 28.8 °C 22.7 °C 1010.8 hPa SSE 0.6 km/h 12.2 km/h 69.6% 0.0 mm 540 W/m2
13:54 28.9 °C 22.7 °C 1010.8 hPa South 7 km/h 20.1 km/h 69.4% 0.0 mm 539 W/m2
13:59 29 °C 22.9 °C 1010.8 hPa South 5.6 km/h 16.3 km/h 69.7% 0.0 mm 537 W/m2
14:04 29.1 °C 22.8 °C 1010.8 hPa SE 2.8 km/h 16.3 km/h 68.8% 0.0 mm 539 W/m2
14:09 29.2 °C 22.8 °C 1010.5 hPa SSE 3.8 km/h 12.2 km/h 68.6% 0.0 mm 544 W/m2
14:14 29.2 °C 22.7 °C 1010.8 hPa South 1.8 km/h 12.2 km/h 68.1% 0.0 mm 545 W/m2
14:19 29.4 °C 22.5 °C 1010.5 hPa SSE 4.2 km/h 12.2 km/h 66.6% 0.0 mm 542 W/m2
14:24 29.5 °C 22.5 °C 1010.5 hPa South 6 km/h 16.3 km/h 66.2% 0.0 mm 543 W/m2
14:29 29.5 °C 22.7 °C 1010.5 hPa SSE 5.3 km/h 16.3 km/h 66.9% 0.0 mm 542 W/m2
14:34 29.5 °C 22.7 °C 1010.5 hPa South 5.1 km/h 16.3 km/h 67% 0.0 mm 544 W/m2
14:44 29.6 °C 22.4 °C 1010.2 hPa SSE 1.6 km/h 12.2 km/h 65.2% 0.0 mm 546 W/m2
14:49 29.7 °C 22.6 °C 1010.2 hPa South 4 km/h 16.3 km/h 65.6% 0.0 mm 546 W/m2
14:54 29.7 °C 22.6 °C 1010.2 hPa South 3.8 km/h 16.3 km/h 65.6% 0.0 mm 544 W/m2
14:59 29.9 °C 22.7 °C 1010.2 hPa South 5.1 km/h 16.3 km/h 65.6% 0.0 mm 546 W/m2
15:04 30 °C 22.9 °C 1009.8 hPa SSW 4 km/h 20.1 km/h 66.1% 0.0 mm 545 W/m2
15:09 29.9 °C 22.9 °C 1009.8 hPa SSW 7.7 km/h 20.1 km/h 65.9% 0.0 mm 544 W/m2
15:14 29.9 °C 22.8 °C 1009.8 hPa SSE 4.2 km/h 16.3 km/h 65.7% 0.0 mm 540 W/m2
15:19 30 °C 22.7 °C 1009.8 hPa SSW 5.9 km/h 20.1 km/h 65.1% 0.0 mm 541 W/m2
15:24 30 °C 22.7 °C 1009.8 hPa SSE 7 km/h 16.3 km/h 65.1% 0.0 mm 539 W/m2
15:29 30 °C 22.8 °C 1009.5 hPa South 8.5 km/h 20.1 km/h 65.2% 0.0 mm 538 W/m2
15:34 30 °C 22.9 °C 1009.5 hPa SSE 8.8 km/h 28 km/h 65.9% 0.0 mm 535 W/m2
15:39 29.8 °C 22.5 °C 1009.5 hPa SSE 4.6 km/h 12.2 km/h 65.1% 0.0 mm 534 W/m2
15:44 29.7 °C 22.5 °C 1009.5 hPa South 8 km/h 20.1 km/h 65.4% 0.0 mm 533 W/m2
15:49 29.7 °C 22.5 °C 1009.5 hPa South 7.6 km/h 20.1 km/h 65.2% 0.0 mm 530 W/m2
15:54 29.7 °C 22.6 °C 1009.1 hPa South 11.4 km/h 28 km/h 65.8% 0.0 mm 528 W/m2
15:59 29.7 °C 22.7 °C 1009.5 hPa South 7.3 km/h 20.1 km/h 66.1% 0.0 mm 526 W/m2
16:04 29.7 °C 22.7 °C 1009.1 hPa South 6.3 km/h 16.3 km/h 66.1% 0.0 mm 522 W/m2
16:09 29.7 °C 23.2 °C 1009.1 hPa South 10.9 km/h 24.1 km/h 68.3% 0.0 mm 519 W/m2
16:14 29.7 °C 23.5 °C 1009.1 hPa South 10.9 km/h 28 km/h 69.7% 0.0 mm 510 W/m2
16:19 29.6 °C 23.4 °C 1009.1 hPa South 6.6 km/h 20.1 km/h 69.3% 0.0 mm 511 W/m2
16:24 29.6 °C 23.2 °C 1009.1 hPa South 5.5 km/h 16.3 km/h 68.8% 0.0 mm 509 W/m2
16:29 29.7 °C 23.5 °C 1009.1 hPa South 9.1 km/h 20.1 km/h 69.3% 0.0 mm 512 W/m2
16:34 29.6 °C 23.6 °C 1009.1 hPa South 7.6 km/h 20.1 km/h 70.2% 0.0 mm 506 W/m2
16:39 29.7 °C 23.5 °C 1009.1 hPa South 5.8 km/h 20.1 km/h 69.1% 0.0 mm 500 W/m2
16:44 29.8 °C 23.4 °C 1009.1 hPa SSE 10.1 km/h 28 km/h 68.7% 0.0 mm 495 W/m2
16:49 29.7 °C 23.3 °C 1009.1 hPa SSE 9.3 km/h 28 km/h 68.3% 0.0 mm 493 W/m2
16:54 29.7 °C 22.9 °C 1008.8 hPa South 7.7 km/h 24.1 km/h 67.1% 0.0 mm 485 W/m2
16:59 29.7 °C 22.9 °C 1008.8 hPa South 6.8 km/h 16.3 km/h 67.2% 0.0 mm 491 W/m2
17:04 29.7 °C 22.9 °C 1008.8 hPa South 5.6 km/h 16.3 km/h 66.8% 0.0 mm 489 W/m2
17:09 29.7 °C 22.5 °C 1008.8 hPa SSE 9.5 km/h 20.1 km/h 65.3% 0.0 mm 483 W/m2
17:14 29.7 °C 22.6 °C 1008.8 hPa South 5.6 km/h 20.1 km/h 65.8% 0.0 mm 482 W/m2
17:19 29.6 °C 22.5 °C 1008.8 hPa South 6.5 km/h 20.1 km/h 65.6% 0.0 mm 478 W/m2
17:24 29.7 °C 22.2 °C 1008.8 hPa South 6.9 km/h 20.1 km/h 64.2% 0.0 mm 480 W/m2
17:29 29.7 °C 21.9 °C 1008.5 hPa South 10.6 km/h 20.1 km/h 63.1% 0.0 mm 469 W/m2
17:34 29.7 °C 21.8 °C 1008.5 hPa South 3.5 km/h 16.3 km/h 62.8% 0.0 mm 461 W/m2
17:39 29.6 °C 21.8 °C 1008.5 hPa South 7.9 km/h 20.1 km/h 62.9% 0.0 mm 459 W/m2
17:44 29.4 °C 21.6 °C 1008.5 hPa South 6.2 km/h 20.1 km/h 63% 0.0 mm 456 W/m2
17:49 29.4 °C 21.6 °C 1008.5 hPa South 9.4 km/h 20.1 km/h 63% 0.0 mm 445 W/m2
17:54 29.3 °C 21.5 °C 1008.1 hPa South 8.6 km/h 20.1 km/h 62.6% 0.0 mm 438 W/m2
17:59 29.3 °C 21.3 °C 1008.5 hPa South 6.5 km/h 16.3 km/h 62% 0.0 mm 433 W/m2
18:04 29.1 °C 21.1 °C 1008.1 hPa South 6.6 km/h 16.3 km/h 62% 0.0 mm 429 W/m2
18:09 29.1 °C 21.1 °C 1008.1 hPa South 6.3 km/h 20.1 km/h 62.1% 0.0 mm 424 W/m2
18:14 29.1 °C 21.1 °C 1008.1 hPa South 8.5 km/h 20.1 km/h 62.1% 0.0 mm 414 W/m2
18:19 29 °C 21 °C 1008.1 hPa South 6.2 km/h 20.1 km/h 62% 0.0 mm 405 W/m2
18:24 28.8 °C 21.1 °C 1008.5 hPa South 5.5 km/h 16.3 km/h 63.1% 0.0 mm 402 W/m2
18:29 28.8 °C 21.3 °C 1008.1 hPa South 8.5 km/h 20.1 km/h 64.3% 0.0 mm 397 W/m2
18:34 28.7 °C 21.7 °C 1008.1 hPa SSE 8.4 km/h 16.3 km/h 66.1% 0.0 mm 95 W/m2
18:39 28.4 °C 21.9 °C 1008.1 hPa South 6.2 km/h 20.1 km/h 67.9% 0.0 mm 66 W/m2
18:44 27.4 °C 21.3 °C 1008.1 hPa South 7.3 km/h 20.1 km/h 69.6% 0.0 mm 62 W/m2
18:49 27.4 °C 21.4 °C 1008.1 hPa South 9.2 km/h 20.1 km/h 70.1% 0.0 mm 59 W/m2
18:54 27.3 °C 21.3 °C 1008.1 hPa SSE 10 km/h 24.1 km/h 70.1% 0.0 mm 58 W/m2
18:59 27.2 °C 21.4 °C 1008.1 hPa SSE 6.5 km/h 20.1 km/h 70.8% 0.0 mm 56 W/m2
19:04 26.7 °C 21 °C 1008.1 hPa South 8.7 km/h 16.3 km/h 71.4% 0.0 mm 55 W/m2
19:09 26.6 °C 21.1 °C 1008.1 hPa South 6.7 km/h 20.1 km/h 72% 0.0 mm 54 W/m2
19:14 26.6 °C 21.1 °C 1008.1 hPa South 7.6 km/h 16.3 km/h 72% 0.0 mm 53 W/m2
19:19 26.5 °C 21 °C 1008.1 hPa South 7.4 km/h 16.3 km/h 72% 0.0 mm 51 W/m2
19:24 26.2 °C 21 °C 1008.5 hPa South 6.5 km/h 16.3 km/h 72.9% 0.0 mm 50 W/m2
19:29 26.2 °C 21 °C 1008.5 hPa SSE 4.7 km/h 12.2 km/h 73% 0.0 mm 49 W/m2
19:34 26.2 °C 21 °C 1008.5 hPa South 5.5 km/h 16.3 km/h 73.2% 0.0 mm 48 W/m2
19:39 26.1 °C 21.1 °C 1008.5 hPa South 3.4 km/h 16.3 km/h 74.1% 0.0 mm 46 W/m2
19:44 25.7 °C 21 °C 1008.5 hPa South 4.2 km/h 12.2 km/h 75.4% 0.0 mm 44 W/m2
19:49 25.7 °C 21.4 °C 1008.5 hPa SSE 3.1 km/h 12.2 km/h 76.9% 0.0 mm 43 W/m2
19:54 25.7 °C 21.6 °C 1008.5 hPa South 4.9 km/h 16.3 km/h 77.9% 0.0 mm 42 W/m2
19:59 25.6 °C 21.7 °C 1008.5 hPa South 7.1 km/h 16.3 km/h 79% 0.0 mm 39 W/m2
20:04 25.1 °C 21.3 °C 1008.5 hPa South 1.3 km/h 16.3 km/h 79.6% 0.0 mm 34 W/m2
20:09 25.1 °C 21.6 °C 1008.5 hPa Calm   4 km/h 80.8% 0.0 mm 30 W/m2
20:14 25 °C 21.5 °C 1008.5 hPa Calm   4 km/h 81% 0.0 mm 28 W/m2
20:19 24.9 °C 21.6 °C 1008.5 hPa Calm   4 km/h 82% 0.0 mm 28 W/m2
20:24 24.2 °C 21 °C 1008.5 hPa Calm     82.3% 0.0 mm 25 W/m2
20:29 24.2 °C 21.1 °C 1008.5 hPa Calm     83.2% 0.0 mm 23 W/m2
20:34 24.2 °C 21.1 °C 1008.5 hPa Calm     83.2% 0.0 mm 21 W/m2
20:39 24.1 °C 21 °C 1008.5 hPa Calm     83% 0.0 mm 14 W/m2
20:44 23.9 °C 20.7 °C 1008.5 hPa Calm     82.4% 0.0 mm 11 W/m2
20:49 23.9 °C 20.7 °C 1008.5 hPa Calm     82.4% 0.0 mm 9 W/m2
20:54 23.8 °C 21 °C 1008.5 hPa Calm     84.3% 0.0 mm 6 W/m2
20:59 23.8 °C 21.1 °C 1008.5 hPa Calm     85.1% 0.0 mm 4 W/m2
21:04 23.4 °C 20.7 °C 1008.5 hPa Calm     85% 0.0 mm 2 W/m2
21:09 23.4 °C 20.8 °C 1008.5 hPa Calm     85.7% 0.0 mm 0 W/m2
21:14 23.4 °C 20.9 °C 1008.5 hPa Calm     86.1% 0.0 mm 0 W/m2
21:19 23.4 °C 21.1 °C 1008.5 hPa Calm     87% 0.0 mm 0 W/m2
21:24 23.1 °C 20.9 °C 1008.8 hPa Calm     87.2% 0.0 mm 0 W/m2
21:29 23 °C 20.8 °C 1008.5 hPa Calm     87.3% 0.0 mm 0 W/m2
21:34 23 °C 20.6 °C 1008.5 hPa Calm     86.6% 0.0 mm 0 W/m2
21:39 22.9 °C 20.6 °C 1008.8 hPa Calm     87.2% 0.0 mm 0 W/m2
21:44 22.5 °C 20.4 °C 1008.8 hPa Calm     88% 0.0 mm 0 W/m2
21:49 22.5 °C 20.4 °C 1009.1 hPa Calm     88% 0.0 mm 0 W/m2
21:54 22.5 °C 20.6 °C 1009.1 hPa Calm   4 km/h 89% 0.0 mm 0 W/m2
21:59 22.5 °C 20.7 °C 1009.1 hPa Calm     89.8% 0.0 mm 0 W/m2
22:04 22.1 °C 20.4 °C 1009.1 hPa Calm     89.9% 0.0 mm 0 W/m2
22:09 22 °C 20.3 °C 1009.1 hPa Calm     90% 0.0 mm 0 W/m2
22:14 22 °C 20.4 °C 1009.5 hPa Calm     90.3% 0.0 mm 0 W/m2
22:19 22 °C 20.5 °C 1009.5 hPa Calm     91% 0.0 mm 0 W/m2
22:24 21.7 °C 20.3 °C 1009.5 hPa Calm     91.4% 0.0 mm 0 W/m2
22:29 21.6 °C 20.2 °C 1009.5 hPa Calm     92% 0.0 mm 0 W/m2
22:34 21.6 °C 20.3 °C 1009.8 hPa Calm     92.7% 0.0 mm 0 W/m2
22:39 21.6 °C 20.4 °C 1009.8 hPa Calm     93% 0.0 mm 0 W/m2
22:44 21.4 °C 20.2 °C 1009.8 hPa Calm     92.8% 0.0 mm 0 W/m2
22:49 21.4 °C 20.2 °C 1009.8 hPa Calm     93% 0.0 mm 0 W/m2
22:54 21.4 °C 20.3 °C 1009.8 hPa Calm     93.3% 0.0 mm 0 W/m2
22:59 21.3 °C 19.9 °C 1009.8 hPa Calm     92% 0.0 mm 0 W/m2
23:04 21.5 °C 19.6 °C 1009.8 hPa Calm     88.9% 0.0 mm 0 W/m2
23:09 21.6 °C 19.3 °C 1009.8 hPa South 0.4 km/h 7.9 km/h 86.9% 0.0 mm 0 W/m2
23:14 21.6 °C 19 °C 1009.8 hPa South 0.4 km/h 7.9 km/h 85.1% 0.0 mm 0 W/m2
23:19 21.6 °C 18.6 °C 1009.8 hPa South 4.9 km/h 16.3 km/h 82.8% 0.0 mm 0 W/m2
23:24 22 °C 18.9 °C 1010.2 hPa South 2.6 km/h 12.2 km/h 82.4% 0.0 mm 0 W/m2
23:29 22.1 °C 18.9 °C 1009.8 hPa SSW 1.9 km/h 16.3 km/h 82.1% 0.0 mm 0 W/m2
23:34 22.1 °C 19 °C 1009.8 hPa South 0.6 km/h 12.2 km/h 82.3% 0.0 mm 0 W/m2
23:39 22.1 °C 19.2 °C 1009.8 hPa Calm     83.8% 0.0 mm 0 W/m2
23:44 21.9 °C 19.1 °C 1009.8 hPa Calm   7.9 km/h 84% 0.0 mm 0 W/m2
23:49 21.8 °C 18.8 °C 1010.2 hPa SW 0.1 km/h 4 km/h 83.2% 0.0 mm 0 W/m2
23:54 21.8 °C 18.8 °C 1010.2 hPa Calm     83% 0.0 mm 0 W/m2
23:59 21.8 °C 18.8 °C 1010.2 hPa Calm     83% 0.0 mm 0 W/m2
Juneau County Weather
Compliments of Weather Underground - 2 mb